Location: Matera
(40.6670°N, 16.6000°E)
Time: 11:16:29
(UTC+01:00)

ISS - Pass Details

Date: 25 January 2019
Orbit: 403 x 411 km, 51.6° (Epoch: 16 February)

Event Time Altitude Azimuth Distance (km) Brightness Sun altitude
Rises 18:27:27 0° 254° (WSW) 2,324 1.9 -16.2°
Reaches altitude 10° 18:29:38 10° 264° (W) 1,468 0.3 -16.6°
Maximum altitude 18:32:41 35° 332° (NNW) 689 -2.6 -17.1°
Enters shadow 18:33:51 26° 14° (NNE) 848 -2.5 -17.4°
